When you browse on this site, cookies collect data to enhance your experience and personalize the content and advertising you see.
Visit our Privacy Policy to learn more. By continuing to use the site, you agree to this use of cookies and data.
  • In Hungary
  • List of Countries
  • For 7 days
  • Water Temperature
  • Satellite Maps
  • Weather Map
  • News
  • Weather Widgets
  • user-avatar
    Login

    Hourly Weather Benicarlo

    Today, 14 December, Friday

    Time Temperature Precipitation Wind Pressure Humidity
    00:00 +10°C° 0 mm 15 mps 754 mmHg 70%
    01:00 +10°C° 0 mm 15 mps 755 mmHg 69%
    02:00 +10°C° 0 mm 15 mps 755 mmHg 67%
    03:00 +10°C° 0 mm 15 mps 756 mmHg 66%
    04:00 +10°C° 0 mm 15 mps 756 mmHg 65%
    05:00 +10°C° 0 mm 14 mps 757 mmHg 64%
    06:00 +11°C° 0 mm 11 mps 758 mmHg 64%
    07:00 +10°C° 0 mm 12 mps 759 mmHg 62%
    08:00 +10°C° 0 mm 13 mps 759 mmHg 59%
    09:00 +12°C° 0 mm 14 mps 760 mmHg 57%
    10:00 +12°C° 0 mm 13 mps 760 mmHg 55%
    11:00 +13°C° 0 mm 13 mps 761 mmHg 54%
    12:00 +14°C° 0 mm 13 mps 761 mmHg 52%
    13:00 +14°C° 0 mm 12 mps 761 mmHg 52%
    14:00 +14°C° 0 mm 12 mps 761 mmHg 52%
    15:00 +14°C° 0 mm 11 mps 761 mmHg 53%
    16:00 +13°C° 0 mm 11 mps 762 mmHg 55%
    17:00 +13°C° 0 mm 11 mps 762 mmHg 58%
    18:00 +12°C° 0 mm 11 mps 763 mmHg 60%
    19:00 +12°C° 0 mm 11 mps 763 mmHg 60%
    20:00 +12°C° 0 mm 11 mps 764 mmHg 59%
    21:00 +12°C° 0 mm 10 mps 764 mmHg 58%
    22:00 +12°C° 0 mm 9 mps 765 mmHg 58%
    23:00 +11°C° 0 mm 8 mps 765 mmHg 57%

    Tomorrow, 15 December, Saturday

    Time Temperature Precipitation Wind Pressure Humidity
    00:00 +11°C° 0 mm 7 mps 765 mmHg 56%
    01:00 +11°C° 0 mm 6 mps 765 mmHg 56%
    02:00 +12°C° 0 mm 5 mps 765 mmHg 56%
    03:00 +11°C° 0 mm 4 mps 765 mmHg 55%
    04:00 +11°C° 0 mm 4 mps 765 mmHg 56%
    05:00 +11°C° 0 mm 3 mps 765 mmHg 57%
    06:00 +11°C° 0 mm 3 mps 765 mmHg 58%
    07:00 +12°C° 0 mm 3 mps 765 mmHg 58%
    08:00 +13°C° 0 mm 3 mps 766 mmHg 57%
    09:00 +14°C° 0 mm 3 mps 766 mmHg 57%
    10:00 +16°C° 0 mm 3 mps 766 mmHg 55%
    11:00 +18°C° 0 mm 3 mps 765 mmHg 52%
    12:00 +19°C° 0 mm 3 mps 765 mmHg 50%
    13:00 +19°C° 0 mm 3 mps 765 mmHg 52%
    14:00 +19°C° 0 mm 4 mps 765 mmHg 53%
    15:00 +20°C° 0 mm 4 mps 764 mmHg 54%
    16:00 +18°C° 0 mm 4 mps 764 mmHg 59%
    17:00 +17°C° 0 mm 3 mps 764 mmHg 63%
    18:00 +16°C° 0 mm 3 mps 764 mmHg 67%
    19:00 +16°C° 0 mm 3 mps 764 mmHg 67%
    20:00 +16°C° 0 mm 3 mps 764 mmHg 66%
    21:00 +16°C° 0 mm 3 mps 764 mmHg 66%
    22:00 +16°C° 0 mm 2 mps 764 mmHg 66%
    23:00 +16°C° 0 mm 2 mps 764 mmHg 67%

    Day after tomorrow, 16 December, Sunday

    Time Temperature Precipitation Wind Pressure Humidity
    00:00 +15°C° 0 mm 2 mps 764 mmHg 68%
    01:00 +15°C° 0 mm 2 mps 764 mmHg 68%
    02:00 +15°C° 0 mm 2 mps 764 mmHg 68%
    03:00 +15°C° 0 mm 1 mps 763 mmHg 69%
    04:00 +15°C° 0 mm 1 mps 763 mmHg 69%
    05:00 +14°C° 0 mm 1 mps 763 mmHg 68%
    06:00 +14°C° 0 mm 1 mps 763 mmHg 68%
    07:00 +15°C° 0 mm 2 mps 763 mmHg 66%
    08:00 +16°C° 0 mm 2 mps 763 mmHg 64%
    09:00 +16°C° 0 mm 2 mps 763 mmHg 63%
    10:00 +18°C° 0 mm 3 mps 763 mmHg 58%
    11:00 +19°C° 0 mm 4 mps 763 mmHg 54%
    12:00 +20°C° 0 mm 4 mps 762 mmHg 50%
    13:00 +20°C° 0 mm 4 mps 762 mmHg 51%
    14:00 +20°C° 0 mm 4 mps 761 mmHg 53%
    15:00 +20°C° 0 mm 5 mps 761 mmHg 55%
    16:00 +19°C° 0 mm 5 mps 761 mmHg 57%
    17:00 +16°C° 0 mm 6 mps 762 mmHg 59%
    18:00 +15°C° 0 mm 7 mps 762 mmHg 61%
    19:00 +15°C° 0 mm 7 mps 763 mmHg 60%
    20:00 +14°C° 0 mm 7 mps 763 mmHg 59%
    21:00 +14°C° 0 mm 7 mps 764 mmHg 58%
    22:00 +14°C° 0 mm 7 mps 765 mmHg 56%
    23:00 +12°C° 0 mm 7 mps 765 mmHg 54%

    17 December, Monday

    Time Temperature Precipitation Wind Pressure Humidity
    00:00 +12°C° 0 mm 8 mps 765 mmHg 52%
    01:00 +11°C° 0 mm 8 mps 766 mmHg 53%
    02:00 +11°C° 0 mm 8 mps 766 mmHg 54%
    03:00 +10°C° 0 mm 8 mps 766 mmHg 55%
    04:00 +10°C° 0 mm 8 mps 767 mmHg 55%
    05:00 +10°C° 0 mm 8 mps 767 mmHg 54%
    06:00 +10°C° 0 mm 8 mps 767 mmHg 54%
    07:00 +10°C° 0 mm 8 mps 768 mmHg 52%
    08:00 +10°C° 0 mm 8 mps 768 mmHg 50%
    09:00 +11°C° 0 mm 9 mps 769 mmHg 48%
    10:00 +12°C° 0 mm 8 mps 769 mmHg 45%
    11:00 +14°C° 0 mm 7 mps 769 mmHg 41%
    12:00 +15°C° 0 mm 7 mps 769 mmHg 37%
    13:00 +15°C° 0 mm 6 mps 769 mmHg 37%
    14:00 +15°C° 0 mm 5 mps 769 mmHg 36%
    15:00 +16°C° 0 mm 5 mps 769 mmHg 36%
    16:00 +14°C° 0 mm 4 mps 769 mmHg 40%
    17:00 +13°C° 0 mm 3 mps 770 mmHg 44%
    18:00 +11°C° 0 mm 3 mps 770 mmHg 48%
    19:00 +12°C° 0 mm 2 mps 771 mmHg 49%
    20:00 +12°C° 0 mm 2 mps 771 mmHg 50%
    21:00 +12°C° 0 mm 1 mps 771 mmHg 51%
    22:00 +12°C° 0 mm 1 mps 771 mmHg 53%
    23:00 +10°C° 0 mm 2 mps 771 mmHg 55%

    18 December, Tuesday

    Time Temperature Precipitation Wind Pressure Humidity
    00:00 +10°C° 0 mm 2 mps 771 mmHg 56%
    01:00 +10°C° 0 mm 2 mps 770 mmHg 57%
    02:00 +10°C° 0 mm 2 mps 770 mmHg 58%
    03:00 +10°C° 0 mm 3 mps 770 mmHg 59%
    04:00 +10°C° 0 mm 3 mps 770 mmHg 59%
    05:00 +10°C° 0 mm 3 mps 769 mmHg 58%
    06:00 +10°C° 0 mm 3 mps 769 mmHg 57%
    07:00 +10°C° 0 mm 4 mps 769 mmHg 55%
    08:00 +11°C° 0 mm 4 mps 769 mmHg 53%
    09:00 +12°C° 0 mm 4 mps 769 mmHg 51%
    10:00 +13°C° 0 mm 4 mps 768 mmHg 47%
    11:00 +14°C° 0 mm 5 mps 768 mmHg 44%
    12:00 +16°C° 0 mm 5 mps 767 mmHg 41%
    13:00 +16°C° 0 mm 5 mps 767 mmHg 44%
    14:00 +16°C° 0 mm 5 mps 766 mmHg 46%
    15:00 +16°C° 0 mm 5 mps 766 mmHg 49%
    16:00 +14°C° 0 mm 4 mps 766 mmHg 55%
    17:00 +13°C° 0 mm 4 mps 766 mmHg 61%
    18:00 +12°C° 0 mm 4 mps 766 mmHg 67%
    19:00 +12°C° 0 mm 4 mps 766 mmHg 65%
    20:00 +12°C° 0 mm 3 mps 766 mmHg 64%
    21:00 +12°C° 0 mm 3 mps 767 mmHg 62%
    22:00 +13°C° 0 mm 3 mps 766 mmHg 60%
    23:00 +13°C° 0 mm 3 mps 766 mmHg 58%

    19 December, Wednesday

    Time Temperature Precipitation Wind Pressure Humidity
    00:00 +13°C° 0 mm 3 mps 766 mmHg 57%
    01:00 +13°C° 0.3 mm 3 mps 766 mmHg 62%
    02:00 +13°C° 0.3 mm 3 mps 765 mmHg 67%
    03:00 +13°C° 0.3 mm 2 mps 765 mmHg 72%
    04:00 +13°C° 0.4 mm 2 mps 765 mmHg 75%
    05:00 +13°C° 0.4 mm 2 mps 765 mmHg 78%
    06:00 +13°C° 0.4 mm 2 mps 765 mmHg 81%
    07:00 +13°C° 0.6 mm 2 mps 765 mmHg 81%
    08:00 +14°C° 0.6 mm 2 mps 766 mmHg 81%
    09:00 +14°C° 0.6 mm 2 mps 766 mmHg 80%
    10:00 +15°C° 0.3 mm 2 mps 766 mmHg 77%
    11:00 +15°C° 0.3 mm 2 mps 765 mmHg 74%
    12:00 +16°C° 0.3 mm 3 mps 765 mmHg 71%
    13:00 +16°C° 0 mm 2 mps 765 mmHg 70%
    14:00 +16°C° 0 mm 2 mps 765 mmHg 69%
    15:00 +16°C° 0 mm 2 mps 764 mmHg 68%
    16:00 +15°C° 0 mm 2 mps 765 mmHg 70%
    17:00 +14°C° 0 mm 2 mps 765 mmHg 72%
    18:00 +13°C° 0 mm 1 mps 765 mmHg 74%
    19:00 +13°C° 0 mm 2 mps 766 mmHg 72%
    20:00 +12°C° 0 mm 2 mps 766 mmHg 70%
    21:00 +11°C° 0 mm 3 mps 766 mmHg 69%
    22:00 +11°C° 0 mm 3 mps 766 mmHg 68%
    23:00 +11°C° 0 mm 3 mps 766 mmHg 67%
    Show more